User: anonymous   Login
Location: Cheyres
(46.8153°N, 6.7877°E)
Time: 03:12:15
(UTC+00:00)
Language:

FENGYUN 1C DEB - Orbit

View from above orbital plane
View from above orbital plane
View from above satellite
View from above satellite

Ground track
Ground track

The orbit data is extracted from the following two-line orbital elements,

1 30357U 99025ABU 22274.87872744  .00000016  00000-0  37525-4 0  9990
2 30357  98.9484 311.8726 0049769 355.6294 177.6835 14.04397567804093
Epoch (UTC): 01 October 2022 21:05:22
Eccentricity: 0.0049769
inclination: 98.9484°
perigee height: 842 km
apogee height: 915 km
right ascension of ascending node: 311.8726°
argument of perigee: 355.6294°
revolutions per day: 14.04397567
mean anomaly at epoch: 177.6835°
orbit number at epoch: 80409

The dashed part of the orbit path shows where the satellite is in the earth's shadow,  

DLR